Погода в Высокогорном

Россия / Хабаровский край     50°05′58″N   139°07′12″E
темп.,
°C
ветер,
м/с
пор.,
м/с
влажн.,
%
обл.,
%
осадки,
мм/ч
давл.,
гПа
погр.,
м
27 октября, ср
ср2701:00−1ююв228924 0.0 101217
04:00−1ююв228955 0.0 101125
07:00−2юв2290100 0.0 101117
10:00+4ююв1281100 0.0 1009111
13:00+4зсз2293100 0.8 1007437
16:00+1з11100100 3.9 1008217
19:00+1з1299100 0.6 1010118
22:00+1зюз1199100 0.7 1010124
28 октября, чт
чт2801:00+1сз1296100 0.1 1011106
04:00+1зсз1299100 0.2 101295
07:00+1сз1399100 0.1 1014165
10:00+1зсз129698 0.3 1016239
13:00+2сз3587100 0.3 1017750
16:00+1зсз2588100 0.4 1018399
19:000з26935 0.0 1021208
22:00−4з119932 0.0 102325
29 октября, пт
пт2901:00−4зсз119974 0.0 102436
04:00−3зсз119786 0.0 1025122
07:00−3зсз119766 0.0 1026114
10:00+1з12857 0.0 1026224
13:00+4з24725 0.0 1024636
16:00+3з24805 0.0 1023408
19:00−2з11935 0.0 102510
22:00−3юз11946 0.0 102510
30 октября, сб
сб3001:00−3юз11948 0.0 102410
04:00−3юз11904 0.0 102310
07:00−3юз118934 0.0 102310
10:00+2з257098 0.0 1021363
13:00+4з3869100 0.0 1020798
16:00+3з487473 0.0 1019687
19:000зсз2109999 0.3 1022566
22:000зсз2691100 0.6 1023690
31 октября, вс
вс3101:00−1зсз2493100 0.1 1025349
04:00−2сз1296100 0.5 1027198
07:00−5с119593 0.2 102955
10:00−3зсз127893 0.3 1030639
13:00−1зсз23575 0.0 10291127
16:00−1сз34575 0.0 1028863
19:00−6зсз11853 0.0 103110
22:00−7юз00873 0.0 103210